STARLINK-1992 (47632 NORAD) Tracking and Keplerian Element Data

This shows tracking and keplerian element data for the satellite.

Feedback or suggestion? Click here.




ElementValue
Catalog47632
NameSTARLINK-1992
Epoch Orbit178
Epoch Day59.91667824
Epoch Year2021
RAAN38.0675
Inclination53.0499
Eccentricity5.74E-05
Argument of Perigee113.2441
Mean Anonmoly31.8557
Mean Motion15.86870152
Decay Rate0.00108474
L11 47632U 21012N 21059.91667824 .00108474 00000-0 41100-3 0 9991
L22 47632 53.0499 38.0675 0000574 113.2441 31.8557 15.86870152 1783

Live tracking and technical data element details for STARLINK-1992 (NORAD 47632). STARLINK-1992 can be tracked NOW for your location showing map with azimuth and elevation plus other details from your city location.

Track the satellite on the map from your city or location and see movement details for azimuth, elevation, latitude, longitude, range, height, and movement on the map or in text.







IsCatalogInMostPopularTable: catalog: 47632, numindb: 3
Update: records affected: 1



GetName: 47632 STARLINK-1992

Hit Count: updated at: Mon, 01 Mar 2021 16:16:35 GMT